Location: �mondeville
(49.4591°N, 1.3431°W)
Time: 17:20:39
(UTC+00:00)

CZ-4B R/B - Pass Details

Date: 22 October 2019
Orbit: 487 x 653 km, 97.8° (Epoch: 14 November)

Event Time Altitude Azimuth Distance (km) Brightness Sun altitude
Rises 04:49:45 0° 14° (NNE) 2,792 6.7 -18.1°
Reaches altitude 10° 04:51:57 10° 15° (NNE) 1,861 5.7 -17.7°
Maximum altitude 04:55:58 83° 103° (ESE) 550 2.8 -17.0°
Drops below altitude 10° 04:59:46 10° 192° (SSW) 1,752 5.2 -16.4°
Sets 05:01:47 0° 193° (SSW) 2,613 6.1 -16.1°
